User: anonymous   Login
Location: Joplin
(37.0842°N, 94.5131°W)
Time: 16:44:16
(UTC-06:00)
Language:

nSIGHT-1 - Orbit

View from above orbital plane
View from above orbital plane
View from above satellite
View from above satellite

Ground track
Ground track

The orbit data is extracted from the following two-line orbital elements,

1 42726U 98067MF  19326.22214266  .00052878  00000-0  28669-3 0  9991
2 42726  51.6321 224.2096 0004882  92.8476 267.3084 15.79489740142487
Epoch (UTC): 22 November 2019 05:19:53
Eccentricity: 0.0004882
inclination: 51.6321°
perigee height: 328 km
apogee height: 335 km
right ascension of ascending node: 224.2096°
argument of perigee: 92.8476°
revolutions per day: 15.79489740
mean anomaly at epoch: 267.3084°
orbit number at epoch: 14248

The dashed part of the orbit path shows where the satellite is in the earth's shadow,  

DLR